Flag for Canada Weather past 2 weeks in Fredericton, New Brunswick, Canada

Now
64 °F

Partly sunny.


Feels Like: 64 °F
Forecast: 49 / 69 °F
Wind: 8 mph from South

Location: Fredericton

Current Time: Sep 22, 2014 at 10:18:21 AM

Latest Report: Sep 22, 2014 at 9:00 AM


Visibility: 9 mi

Pressure: 29.43 "Hg

Humidity: 100%

Dew point: 64 °F

Location of FrederictonLocation

Historic Weather in Fredericton — Graph

°F

Fredericton temperature yesterday

Maximum temperature yesterday: 75 °F (at 4:00 PM)
Minimum temperature yesterday: 54 °F (at 12:00 AM)
Average temperature yesterday: 63 °F

Past Weeks' High & Low Weather Summary

 TemperatureHumidityPressure
High75 °F (Sep 21, 4:00 PM)100% (Sep 8, 3:00 AM)30.47 "Hg (Sep 8, 3:00 AM)
Low32 °F (Sep 19, 7:00 AM)24% (Sep 8, 5:00 PM)29.40 "Hg (Sep 22, 6:01 AM)
Average53 °F79%30.08 "Hg
* Reported Sep 7 9:00 AM — Sep 22 9:00 AM, Fredericton, Weather by CustomWeather, © 2014

Note: Actual official high and low records may vary slightly from our data, if they occured in-between our weather recording intervals... More about our weather records

Advertising

Fredericton weather history for previous 24 hours

 ConditionsComfort  
Time TempWeatherWind HumidityBarometerVisibility
9:00 AM
Sep 22
64 °FPartly sunny.8 mph100%29.43 "Hg9 mi
8:46 AM64 °FCloudy.7 mph100%29.43 "Hg9 mi
8:01 AM64 °FFog.7 mph100%29.43 "Hg1 mi
7:00 AM64 °FFog.3 mph100%29.41 "Hg1 mi
6:01 AM64 °FFog.5 mph100%29.40 "Hg5 mi
5:00 AM64 °FLight rain. Fog.3 mph100%29.41 "Hg5 mi
4:00 AM64 °FLight rain. Fog.3 mph100%29.44 "Hg4 mi
3:00 AM64 °FLight rain. Low clouds.6 mph100%29.49 "Hg7 mi
2:47 AM64 °FLight rain. Fog.6 mph100%29.50 "Hg6 mi
2:00 AM64 °FRain. Fog.6 mph100%29.54 "Hg4 mi
1:49 AM64 °FRain. Fog.7 mph100%29.55 "Hg4 mi
1:00 AM64 °FLight rain. Mostly cloudy.5 mph94%29.59 "Hg9 mi
12:54 AM64 °FLight rain. Mostly cloudy.5 mph100%29.60 "Hg9 mi
12:00 AM66 °FLow clouds.5 mph94%29.65 "Hg9 mi
11:00 PM
Sep 21
66 °FOvercast.7 mph94%29.69 "Hg9 mi
10:00 PM66 °FLight rain. Mostly cloudy.3 mph94%29.72 "Hg7 mi
9:00 PM68 °FMostly cloudy.3 mph88%29.76 "Hg9 mi
8:00 PM68 °FOvercast.7 mph88%29.78 "Hg9 mi
7:00 PM70 °FOvercast.15 mph83%29.80 "Hg9 mi
6:00 PM72 °FPartly sunny.13 mph78%29.80 "Hg9 mi
5:00 PM73 °FSunny.21 mph69%29.82 "Hg9 mi
4:00 PM75 °FPassing clouds.18 mph61%29.84 "Hg9 mi
3:00 PM72 °FPartly sunny.18 mph61%29.86 "Hg9 mi
2:00 PM68 °FBroken clouds.14 mph73%29.89 "Hg9 mi
1:00 PM66 °FCloudy.18 mph78%29.93 "Hg9 mi
12:57 PM66 °FCloudy.15 mph78%29.93 "Hg9 mi
12:00 PM70 °FPartly sunny.23 mph69%29.93 "Hg9 mi
11:00 AM68 °FPartly sunny.21 mph73%29.94 "Hg9 mi
10:00 AM64 °FOvercast.18 mph83%29.95 "Hg9 mi
Weather by CustomWeather, © 2014

See weather overviewHow to use our weather pages